Temperature
22 22 21 22 22 22 22 21 21 21 21 21 20 20 20 20 20 20 20 19 19 19 19 19 19 18 18 18 18 19 19 18 18 18 18 18 18 18 18 18 18 17 17
23 22 22 22 21 21 21 21 21 21 21 20 20 20 20 20 20 19 19 19 19 19 19 19 19 19 19 19 19 19 19 19 18 18 18 18 18 18 18 18 18 18 17
23 22 22 22 21 21 21 21 21 21 20 20 20 20 20 19 19 19 19 19 19 19 19 19 19 19 19 19 19 19 19 19 18 18 18 18 18 18 18 18 18 18 17
23 22 22 22 21 21 21 21 21 20 20 20 20 20 20 19 19 19 19 19 19 19 19 19 19 19 19 19 19 19 19 19 19 19 18 18 18 18 18 18 18 18 18
23 22 22 22 22 21 21 21 21 20 20 20 20 20 20 20 19 19 19 19 19 19 19 19 19 19 19 19 19 19 19 19 19 19 18 18 18 19 18 18 18 18 18
23 22 22 22 22 22 21 21 21 21 20 20 20 20 20 20 20 20 20 20 19 19 19 19 19 19 20 20 20 19 19 18 18 18 18 18 18 19 19 19 18 18 18
23 22 22 22 22 22 22 21 21 21 21 20 20 20 20 20 20 20 20 20 20 19 19 19 19 20 20 20 20 19 19 18 18 18 18 18 18 19 19 19 19 18 18
23 23 22 22 22 22 21 21 21 21 21 20 20 20 20 20 19 19 19 19 19 19 19 19 19 19 20 20 20 19 19 18 18 18 18 18 18 18 19 19 19 19 19
23 23 22 22 22 21 21 21 21 21 21 20 20 20 20 20 19 19 19 19 19 19 19 19 19 19 19 19 20 20 19 19 18 18 18 18 18 18 18 19 19 19 19
22 22 22 21 21 21 21 21 20 20 20 20 20 20 20 20 20 19 19 19 19 19 18 18 19 19 19 19 19 19 19 19 19 18 18 18 18 17 18 18 19 19 19
21 21 21 20 20 20 20 20 20 20 20 20 20 20 20 20 19 19 19 19 19 18 18 18 18 18 18 18 19 19 19 19 19 19 18 18 17 17 18 18 18 19 19
20 20 20 20 20 20 20 20 20 20 20 19 19 19 19 19 19 19 19 19 18 18 18 18 18 18 18 18 18 18 19 19 19 19 19 18 18 17 17 18 18 18 19
20 20 19 19 20 20 20 20 20 20 19 19 19 19 19 19 18 18 18 18 18 18 18 17 17 17 17 17 17 17 18 18 18 19 19 18 18 18 18 17 18 18 18
19 19 19 19 19 19 20 19 19 19 19 19 19 18 18 18 18 18 18 18 18 18 17 17 17 17 17 17 17 17 17 17 18 18 18 18 18 18 18 17 17 18 18
19 19 19 19 19 19 19 19 19 19 18 18 18 18 18 18 17 17 18 18 17 17 17 17 17 17 17 17 17 16 16 17 17 17 18 18 18 18 17 17 17 17 18
19 19 18 19 19 19 19 19 19 18 18 18 18 18 17 17 17 17 17 17 17 17 17 17 17 17 17 16 16 16 16 16 17 17 17 17 17 17 17 17 17 17 17
19 18 18 18 18 19 19 18 18 18 18 18 18 17 17 17 17 17 17 17 17 17 17 17 16 16 16 16 16 16 16 16 16 17 17 17 17 17 17 17 17 17 17
18 18 18 18 18 18 18 18 18 18 17 17 17 17 17 17 17 16 16 16 16 16 16 16 16 16 16 16 16 16 16 16 16 16 16 17 17 17 17 17 17 17 17
18 18 18 18 18 18 18 18 18 17 17 17 16 16 16 16 16 16 16 16 16 16 16 16 16 16 16 16 16 15 16 16 16 16 16 16 17 17 17 17 17 17 17
18 18 18 18 18 18 18 17 17 17 16 16 16 16 16 16 16 16 16 16 16 16 16 15 15 15 15 15 15 15 15 16 16 16 16 17 17 17 17 17 17 17 17
18 18 18 18 17 17 17 16 16 16 16 15 15 15 15 15 15 15 15 15 15 15 15 15 15 15 15 15 15 15 16 16 16 16 17 17 17 17 17 17 17 17 17
18 18 18 17 17 17 16 16 15 15 15 14 14 14 14 14 14 14 14 15 15 15 15 15 15 15 15 15 15 15 15 16 16 17 17 17 17 17 17 17 17 16 17
18 18 18 17 17 16 16 15 15 15 14 14 14 14 14 14 14 14 14 14 14 14 14 14 15 15 15 15 15 15 15 16 17 17 17 17 18 17 17 17 17 17 17
18 18 18 17 17 16 16 15 15 14 13 13 13 13 13 13 13 13 14 14 14 14 14 14 14 14 14 15 15 15 15 15 15 16 17 17 17 17 17 17 17 17 17
18 18 17 17 16 16 15 15 14 13 13 12 12 12 12 12 12 13 13 13 13 14 14 14 14 14 14 14 15 15 15 15 15 15 16 17 17 17 17 17 17 17 17
18 18 17 17 16 15 14 14 13 13 12 12 11 11 11 12 12 12 12 12 13 13 13 13 13 13 14 14 14 14 14 14 15 15 16 16 17 17 17 17 17 17 17
Wind_Speed
10 12 19 19 18 18 18 17 17 17 16 16 17 18 18 18 18 18 17 16 16 14 13 12 11 11 11 12 14 15 16 16 17 17 17 16 15 14 16 17 18 17 19
15 17 19 18 18 17 17 17 17 16 16 15 16 16 16 16 16 15 15 14 13 13 12 12 11 11 11 11 12 13 14 15 15 16 16 15 14 15 16 17 16 16 19
18 16 18 18 17 17 16 16 16 16 15 15 15 15 15 15 14 14 13 12 12 12 11 11 11 11 11 11 11 12 12 12 14 15 14 13 14 16 18 17 18 18 18
16 16 17 19 17 16 16 16 16 16 15 15 14 14 14 14 13 13 12 12 11 11 11 11 11 11 10 10 10 10 11 11 12 13 11 11 13 17 18 18 18 17 17
13 15 18 20 18 17 16 16 16 16 15 15 14 14 14 13 13 13 12 11 11 11 10 11 11 11 10 10 9 9 9 9 9 9 10 10 12 16 17 17 17 17 17
12 14 18 19 18 17 16 16 16 15 15 14 14 14 14 13 13 12 12 11 11 11 10 11 11 11 11 10 9 8 8 8 7 5 8 13 14 17 17 17 17 17 17
13 13 17 19 18 17 16 15 15 14 14 13 13 13 13 12 12 12 11 11 11 11 11 12 12 11 11 11 10 9 8 8 7 4 8 13 15 19 18 18 17 17 17
16 12 15 18 18 16 15 15 14 13 12 12 11 11 11 10 10 10 11 11 11 11 12 12 12 12 12 11 11 10 9 9 7 6 8 14 18 21 20 19 18 17 17
13 11 10 13 15 15 14 13 13 12 11 11 10 10 10 10 10 10 10 11 11 11 12 12 12 12 12 12 11 11 11 11 8 4 6 13 20 23 22 22 20 19 18
10 9 7 9 10 11 11 12 12 11 11 10 10 10 10 10 11 11 12 12 13 13 13 14 13 13 13 12 12 12 12 12 10 7 7 11 21 24 24 23 22 21 19
9 7 6 6 7 9 10 11 12 12 11 11 11 11 11 10 10 10 12 13 14 15 15 15 15 14 13 13 13 13 12 11 10 8 9 12 20 25 25 25 24 23 22
9 8 7 6 6 8 9 10 10 10 10 11 10 10 10 10 11 11 12 15 17 18 17 16 14 13 12 10 11 13 11 11 11 11 11 13 19 26 27 27 26 25 24
9 9 6 5 4 4 4 7 7 7 8 10 11 12 11 10 10 9 8 9 12 15 14 13 12 10 8 7 7 9 11 12 11 12 13 14 18 26 28 28 28 27 26
9 9 6 4 4 3 4 3 4 4 4 6 10 12 9 5 5 6 5 6 6 7 7 9 7 7 8 8 9 9 11 11 12 13 15 17 18 25 27 27 28 28 28
9 8 6 5 4 3 3 1 1 1 2 4 6 9 9 5 5 3 3 5 5 6 6 5 5 6 6 7 8 9 8 10 13 13 13 17 18 23 28 28 28 28 28
8 7 6 6 5 4 4 3 2 2 1 0 2 4 6 5 4 4 4 3 4 5 6 6 6 7 6 6 8 8 8 10 12 13 14 15 18 21 27 29 29 28 28
6 6 6 7 7 7 6 6 4 4 4 2 2 1 2 3 4 3 3 3 4 6 6 5 5 5 6 7 8 8 7 9 9 10 14 15 15 20 27 30 29 29 29
6 7 6 8 9 9 8 7 5 6 6 4 4 3 1 0 1 2 2 4 4 5 4 4 4 4 5 6 6 7 8 7 9 11 12 14 15 17 22 29 30 30 29
6 6 6 7 8 8 8 6 5 6 5 6 6 4 2 1 0 1 2 3 3 3 3 4 4 4 5 6 6 7 7 7 8 9 10 13 16 17 17 21 28 29 30
6 6 6 6 6 6 6 6 6 7 6 6 5 5 4 2 1 0 1 3 2 3 4 4 5 5 4 5 6 7 6 7 7 9 11 10 12 17 18 18 19 23 29
5 6 5 5 4 4 4 3 3 4 5 5 5 8 7 6 4 2 2 3 2 3 5 6 5 5 5 3 3 4 6 8 9 9 9 9 10 12 14 16 16 16 17
6 6 6 6 5 4 3 2 1 1 2 2 3 6 8 9 8 5 4 4 3 3 4 4 4 3 4 4 4 3 4 4 5 8 8 9 10 9 10 13 14 15 15
7 8 7 7 6 5 4 2 2 3 3 4 5 5 6 9 9 7 6 5 4 3 3 4 3 5 5 4 5 4 3 4 4 3 5 7 8 8 9 8 11 13 15
8 7 8 7 6 5 5 3 3 1 2 3 3 4 7 7 8 8 7 6 5 3 3 3 1 2 3 4 3 4 5 4 3 4 4 3 6 7 8 8 9 10 14
7 7 7 6 5 4 4 4 3 2 3 3 4 5 6 6 6 7 7 7 5 3 3 3 2 1 1 2 3 3 3 3 4 3 4 4 3 4 6 7 7 8 11
4 5 6 6 4 3 3 3 3 4 4 4 5 4 5 5 6 7 7 7 6 4 4 4 3 2 2 2 3 3 3 3 3 3 5 4 4 4 4 6 7 8 8
Wind_Direction
151 157 149 142 138 135 132 129 125 121 117 115 113 113 113 114 115 118 121 124 127 131 133 133 131 125 118 115 116 119 121 122 123 123 122 118 117 120 120 118 116 116 119
150 153 147 141 138 137 135 134 131 128 125 122 119 118 118 118 119 121 125 128 131 134 136 137 136 132 127 124 125 127 129 130 129 128 124 119 120 128 126 121 121 125 123
144 146 143 139 136 135 135 135 135 134 131 130 128 127 127 128 129 131 134 137 140 141 143 144 144 143 140 138 137 136 137 137 135 130 124 117 117 126 130 127 128 127 126
139 138 139 136 134 134 135 137 138 139 138 139 139 140 140 141 142 144 146 149 150 152 154 156 155 154 153 152 151 149 149 150 149 141 136 138 128 129 133 133 133 131 130
133 134 139 136 134 134 136 138 140 142 144 147 149 151 152 154 156 157 159 162 163 164 165 167 165 165 165 166 167 167 165 166 168 162 165 162 142 141 141 141 141 138 137
130 133 140 138 137 137 138 139 142 145 150 154 158 161 163 166 168 169 172 175 177 179 179 178 176 175 175 179 183 186 187 187 189 183 169 164 156 153 151 150 149 147 145
133 137 142 142 142 143 143 144 146 150 155 160 165 170 174 177 180 181 184 188 191 194 193 190 187 186 186 189 195 202 207 211 210 198 170 171 171 163 159 158 157 156 153
141 142 146 148 149 150 149 150 152 156 161 166 172 179 184 189 193 197 201 204 207 208 202 197 194 193 194 196 203 211 219 228 225 205 192 190 184 172 167 165 164 163 162
140 142 144 151 154 156 157 158 160 163 169 175 183 190 196 203 208 213 217 220 219 218 212 206 203 203 204 205 211 219 229 237 245 239 223 199 194 181 174 171 170 170 170
134 142 140 146 150 156 164 168 171 175 181 187 195 202 208 215 220 224 225 228 228 225 221 217 214 213 215 216 221 227 236 245 251 248 245 213 200 189 182 178 176 175 176
135 142 143 149 158 165 171 180 183 189 194 199 206 213 217 222 230 236 236 236 236 233 228 224 222 222 224 227 232 236 241 246 252 251 241 226 208 198 190 185 183 181 181
131 149 161 162 172 178 185 184 193 201 205 208 211 219 222 222 227 237 240 242 242 240 236 232 232 232 234 236 241 245 244 244 250 252 244 237 218 206 197 191 188 187 187
118 128 135 139 147 162 170 172 195 211 214 220 221 223 226 226 229 236 236 248 246 242 235 230 232 231 231 230 235 242 244 245 246 249 251 250 227 211 204 197 194 191 191
101 107 110 102 97 103 123 155 189 208 219 221 227 225 219 220 223 225 229 235 236 228 218 218 214 217 228 236 241 247 248 247 247 246 249 255 238 216 208 203 200 197 195
88 88 87 90 88 86 93 108 130 231 230 224 224 223 215 214 228 230 234 234 230 223 212 209 209 208 209 223 234 240 246 250 251 249 252 253 243 224 213 209 207 204 201
87 89 83 68 63 65 63 53 40 7 358 33 218 224 213 214 220 228 234 239 241 234 223 213 209 211 213 217 231 234 243 252 252 251 254 257 249 235 222 216 212 210 208
86 81 87 73 51 47 39 33 32 21 26 20 346 292 220 215 225 223 236 246 247 244 233 222 219 213 217 222 231 233 238 242 246 247 249 250 249 242 232 224 219 216 213
97 81 68 70 59 50 40 32 23 21 21 6 356 354 353 306 237 224 244 254 256 248 227 221 218 217 223 225 229 232 235 235 239 242 242 242 241 241 238 232 225 220 216
120 106 83 69 64 56 45 35 25 18 11 356 348 343 345 23 41 192 250 263 269 254 241 237 224 215 222 228 233 237 236 237 236 240 235 234 232 234 233 233 230 227 224
133 122 106 87 78 67 49 35 23 13 359 351 345 331 321 310 337 339 266 279 276 263 257 245 237 227 225 225 243 249 242 240 237 234 232 229 226 227 227 228 230 232 232
144 136 134 119 102 85 64 51 32 357 345 346 348 346 341 330 327 321 294 296 284 261 259 251 238 236 236 213 232 272 265 245 236 236 229 223 224 223 222 222 222 224 230
174 167 159 149 135 122 119 127 152 261 310 325 337 348 350 339 326 319 295 279 270 274 287 272 239 234 237 201 195 228 287 294 254 235 224 221 221 215 220 221 218 217 220
184 181 172 165 151 145 137 111 48 17 354 348 339 336 331 328 321 316 298 280 260 239 265 280 258 232 243 235 204 192 214 253 295 286 237 224 213 209 216 213 211 214 216
193 180 169 164 159 159 147 139 154 172 260 270 282 303 317 326 327 326 316 300 266 237 240 267 294 242 235 252 245 226 220 211 237 301 313 261 221 214 212 214 214 210 210
176 166 163 162 169 179 173 169 172 208 239 271 300 321 325 326 332 338 333 330 306 270 248 248 278 302 248 252 246 243 247 238 223 223 283 308 294 238 215 210 208 207 208
151 148 155 163 188 205 200 197 194 224 255 289 312 321 321 320 326 334 338 343 336 319 288 274 268 273 270 279 274 245 225 234 235 219 240 263 271 264 229 210 206 207 203
Height
1517 1519 1522 1524 1526 1528 1530 1532 1533 1535 1537 1538 1540 1541 1542 1543 1544 1545 1546 1547 1548 1549 1549 1550 1551 1551 1552 1552 1552 1553 1553 1553 1553 1554 1554 1555 1555 1555 1556 1556 1557 1557 1558
1515 1519 1522 1525 1527 1529 1531 1533 1534 1536 1538 1539 1541 1542 1543 1544 1545 1545 1546 1547 1548 1549 1550 1551 1552 1552 1553 1553 1553 1553 1554 1554 1554 1555 1556 1557 1557 1557 1557 1558 1559 1559 1560
1516 1519 1522 1525 1527 1529 1531 1533 1535 1537 1538 1540 1541 1542 1543 1544 1545 1546 1546 1547 1548 1549 1550 1551 1552 1553 1553 1554 1554 1554 1555 1555 1556 1557 1557 1558 1558 1559 1559 1559 1560 1561 1562
1517 1520 1523 1525 1528 1529 1531 1533 1535 1537 1538 1540 1541 1542 1543 1544 1545 1546 1546 1547 1548 1549 1550 1551 1552 1553 1553 1554 1555 1555 1556 1556 1557 1558 1558 1559 1560 1560 1560 1561 1561 1562 1563
1519 1521 1524 1526 1528 1530 1532 1533 1535 1537 1539 1540 1541 1542 1543 1544 1545 1545 1546 1547 1548 1549 1550 1550 1551 1552 1553 1554 1555 1556 1557 1557 1558 1558 1559 1560 1561 1561 1561 1562 1562 1563 1564
1520 1523 1525 1527 1529 1530 1532 1534 1536 1537 1539 1540 1541 1542 1543 1543 1544 1545 1545 1546 1547 1548 1549 1550 1551 1552 1553 1554 1555 1556 1557 1558 1558 1559 1559 1560 1561 1562 1562 1562 1563 1564 1565
1522 1524 1526 1528 1530 1531 1533 1535 1536 1538 1539 1540 1541 1541 1542 1543 1543 1544 1545 1545 1546 1547 1548 1549 1550 1551 1552 1554 1555 1556 1557 1558 1559 1559 1560 1560 1562 1562 1563 1563 1564 1564 1565
1523 1525 1527 1529 1531 1532 1534 1535 1536 1537 1538 1539 1540 1540 1541 1542 1542 1543 1544 1544 1545 1546 1547 1548 1549 1550 1551 1553 1554 1555 1557 1558 1558 1559 1559 1560 1562 1563 1563 1564 1564 1565 1565
1525 1527 1528 1530 1532 1533 1534 1536 1536 1537 1538 1539 1539 1540 1540 1541 1541 1542 1543 1543 1544 1545 1546 1547 1548 1549 1550 1552 1553 1554 1555 1557 1557 1558 1558 1559 1561 1562 1563 1564 1564 1565 1565
1527 1528 1530 1531 1533 1534 1535 1536 1537 1537 1538 1538 1538 1539 1539 1540 1540 1541 1541 1542 1543 1544 1545 1546 1546 1547 1549 1550 1551 1552 1554 1555 1556 1557 1557 1558 1559 1560 1562 1563 1563 1564 1565
1528 1530 1531 1532 1533 1534 1535 1536 1537 1537 1537 1538 1538 1538 1538 1538 1539 1539 1539 1540 1540 1541 1542 1543 1544 1545 1546 1548 1549 1550 1551 1552 1554 1554 1555 1556 1557 1558 1560 1561 1562 1563 1564
1528 1530 1532 1533 1534 1534 1535 1535 1536 1536 1536 1536 1536 1536 1537 1537 1537 1537 1537 1537 1538 1538 1539 1540 1541 1542 1543 1544 1546 1547 1548 1549 1550 1551 1552 1553 1554 1555 1556 1558 1559 1560 1562
1528 1530 1532 1533 1533 1534 1534 1535 1535 1535 1535 1535 1535 1535 1535 1535 1534 1534 1534 1534 1534 1535 1535 1536 1536 1537 1538 1539 1541 1542 1544 1545 1545 1547 1548 1549 1550 1551 1552 1554 1556 1558 1559
1529 1530 1532 1533 1533 1533 1533 1533 1533 1533 1533 1532 1532 1532 1532 1531 1531 1531 1531 1531 1531 1531 1531 1531 1532 1532 1533 1534 1535 1536 1538 1539 1540 1541 1542 1544 1545 1547 1548 1550 1552 1554 1556
1530 1531 1532 1533 1533 1533 1532 1532 1532 1531 1531 1530 1529 1529 1529 1528 1528 1527 1527 1527 1527 1526 1526 1526 1526 1527 1527 1527 1529 1530 1531 1532 1534 1535 1536 1538 1540 1541 1543 1545 1548 1550 1552
1531 1531 1532 1532 1532 1532 1531 1531 1531 1530 1529 1528 1528 1527 1526 1525 1525 1524 1524 1523 1523 1522 1522 1521 1521 1521 1521 1522 1523 1523 1524 1525 1527 1528 1530 1531 1534 1536 1538 1540 1542 1544 1547
1531 1531 1531 1531 1531 1531 1531 1530 1530 1529 1528 1527 1526 1525 1524 1523 1522 1521 1520 1519 1519 1518 1517 1516 1516 1516 1516 1516 1516 1517 1517 1518 1520 1521 1523 1525 1527 1529 1531 1534 1536 1538 1541
1531 1531 1531 1531 1531 1531 1530 1530 1529 1528 1527 1526 1524 1523 1522 1521 1519 1518 1517 1516 1515 1514 1513 1512 1512 1511 1511 1511 1510 1510 1511 1512 1513 1515 1516 1518 1520 1523 1525 1527 1530 1532 1535
1532 1532 1532 1532 1531 1531 1530 1530 1529 1527 1526 1524 1522 1521 1520 1518 1517 1515 1514 1513 1512 1510 1509 1508 1508 1507 1507 1506 1506 1505 1506 1506 1507 1508 1509 1511 1513 1515 1517 1520 1523 1525 1528
1533 1533 1532 1532 1532 1531 1530 1529 1527 1526 1524 1522 1520 1518 1517 1516 1514 1513 1511 1510 1508 1507 1505 1505 1504 1503 1503 1503 1502 1501 1501 1501 1501 1502 1503 1505 1507 1509 1511 1513 1516 1518 1521
1533 1532 1532 1531 1530 1529 1527 1526 1525 1523 1521 1519 1517 1515 1514 1513 1511 1510 1508 1507 1505 1503 1502 1501 1500 1499 1499 1499 1499 1498 1497 1497 1496 1496 1497 1499 1501 1503 1505 1507 1509 1511 1514
1531 1530 1529 1528 1527 1526 1524 1523 1521 1520 1518 1515 1513 1512 1510 1509 1508 1506 1505 1503 1502 1500 1499 1497 1496 1495 1495 1496 1496 1496 1494 1494 1492 1492 1493 1494 1496 1498 1499 1501 1502 1505 1507
1529 1528 1527 1526 1524 1523 1521 1520 1518 1516 1514 1511 1509 1507 1506 1505 1504 1502 1501 1500 1498 1497 1496 1494 1493 1492 1492 1492 1493 1494 1493 1491 1490 1489 1489 1489 1491 1492 1494 1495 1497 1499 1502
1527 1526 1525 1524 1522 1521 1519 1517 1515 1512 1510 1507 1505 1503 1501 1500 1499 1498 1497 1495 1494 1493 1493 1491 1490 1489 1488 1488 1489 1490 1490 1490 1490 1487 1486 1486 1487 1488 1489 1491 1493 1495 1497
1526 1525 1524 1522 1520 1518 1516 1514 1511 1509 1507 1504 1502 1499 1498 1496 1495 1494 1492 1491 1490 1489 1489 1488 1488 1486 1485 1485 1485 1485 1486 1486 1487 1486 1485 1484 1484 1485 1486 1487 1489 1491 1493
1525 1524 1522 1520 1518 1516 1514 1511 1509 1506 1504 1501 1498 1496 1494 1493 1492 1490 1489 1487 1486 1485 1485 1484 1484 1483 1482 1482 1481 1481 1481 1482 1483 1483 1483 1482 1482 1483 1483 1484 1485 1487 1490